Wind_Speed
33 33 32 32 33 32 32 32 31 31 30 29 29 29 29 29 29 28 28 28 27 28 28 27 27 26 26 26 26 26 25 25 25 26 26 26 27 27 27 27 27 27 27
35 35 34 35 34 34 34 34 34 33 32 31 31 31 31 32 31 31 31 31 30 30 29 28 28 28 28 28 27 28 27 27 27 27 28 28 28 29 29 29 29 28 28
37 37 36 36 36 36 36 36 36 36 35 34 34 34 34 34 34 33 32 32 31 31 31 30 30 30 30 31 30 29 29 29 29 29 30 30 30 31 31 31 31 31 31
39 39 38 38 38 38 38 38 38 38 37 37 37 36 36 35 35 35 34 34 33 33 33 32 32 32 32 32 32 32 31 31 31 31 31 31 32 32 33 33 33 33 33
41 41 41 40 40 40 40 40 40 40 40 39 39 38 38 37 37 37 36 35 35 35 35 35 34 35 34 34 34 34 34 33 33 33 33 33 34 34 35 35 35 35 36
43 43 43 43 42 42 42 42 42 42 42 41 41 40 40 39 39 38 38 38 37 37 37 37 37 37 37 37 37 37 36 35 35 35 36 36 36 37 37 37 37 37 37
45 45 46 46 45 44 44 44 43 44 43 43 43 42 42 42 42 41 40 40 40 40 40 39 39 39 40 40 39 39 39 38 38 38 39 39 39 39 39 39 39 39 38
46 46 46 46 47 47 46 46 45 45 45 45 45 45 44 44 44 43 42 42 42 41 41 42 42 42 41 42 42 42 42 41 40 40 41 41 41 41 41 41 40 39 39
46 46 46 47 46 46 47 47 47 47 46 47 47 47 47 46 46 45 45 44 43 43 43 43 44 44 44 44 44 44 44 43 43 43 44 43 42 41 41 41 41 41 40
46 45 46 47 47 47 47 47 48 48 48 48 49 49 49 49 48 48 47 46 46 45 45 45 46 45 46 46 45 46 46 45 44 44 44 43 42 42 42 42 42 43 43
46 46 46 47 48 48 47 47 47 48 49 49 50 50 51 50 50 50 49 48 48 47 47 47 47 47 47 47 47 47 47 46 45 44 43 43 43 44 44 44 44 45 45
46 47 47 48 48 48 48 48 47 47 48 50 50 50 51 51 51 51 51 50 50 49 49 48 49 49 48 47 47 47 47 47 45 44 45 45 45 45 45 45 45 46 46
45 46 47 48 48 49 49 49 48 48 47 48 49 50 51 52 52 52 52 52 52 51 51 50 51 50 49 48 47 47 47 47 46 46 47 47 47 47 46 45 46 46 46
46 46 47 48 48 49 50 50 50 49 49 49 49 49 50 52 53 53 53 53 53 52 52 51 51 50 49 48 48 47 48 48 47 48 48 48 49 49 48 48 47 47 47
46 47 47 48 48 48 49 50 50 49 49 50 50 50 50 51 52 52 53 53 54 53 53 52 52 51 50 48 48 48 48 48 47 47 48 49 49 50 49 48 48 48 49
47 47 47 47 48 49 48 49 49 48 48 49 49 50 50 50 50 50 51 52 53 53 53 52 51 51 51 50 49 49 49 50 49 48 48 49 49 50 50 50 50 50 50
48 48 48 48 49 49 49 49 49 48 48 48 48 48 49 49 49 49 50 51 51 51 51 50 51 51 51 50 50 50 50 50 49 49 49 48 48 49 50 50 50 50 50
47 48 48 48 49 49 49 49 49 49 48 48 48 48 48 48 48 49 50 50 51 50 49 49 49 50 50 50 49 49 49 50 50 50 49 48 48 48 49 50 50 50 49
47 47 48 48 48 48 48 48 49 49 48 48 48 48 47 48 48 48 49 50 50 49 48 48 48 48 49 49 49 48 48 49 50 49 49 49 49 48 49 50 49 50 50
48 47 47 47 47 47 48 48 48 48 48 48 48 48 47 46 47 46 46 47 48 48 48 48 47 48 48 48 48 48 48 49 50 50 50 50 50 49 49 49 49 50 50
47 47 47 46 47 47 48 47 47 47 47 47 46 46 45 45 45 45 45 46 46 46 47 46 47 47 47 47 48 48 48 49 49 49 49 50 49 50 50 49 48 49 49
46 47 46 46 46 46 45 45 46 46 46 46 45 45 45 44 44 44 45 45 45 45 45 45 45 46 46 47 47 48 48 48 49 48 49 49 49 48 48 47 48 48 49
45 45 45 46 45 45 44 44 44 44 44 44 45 45 45 44 44 44 44 44 43 43 44 45 45 44 45 47 47 47 47 46 47 48 48 47 47 47 48 48 48 48 48
44 44 45 46 46 45 44 44 44 44 43 44 44 45 44 43 42 43 43 44 44 44 44 44 44 45 46 46 45 45 44 45 46 46 46 46 46 45 46 46 47 47 46
43 44 44 44 45 45 44 44 42 42 43 43 43 43 44 43 42 42 42 43 43 43 43 42 43 43 43 42 42 43 43 44 44 44 44 44 43 44 44 44 44 44 44
42 42 42 42 42 42 43 43 42 42 42 42 42 43 44 43 43 42 42 42 42 42 42 42 42 42 41 41 40 40 41 41 41 42 41 42 42 42 42 41 41 41 41
Wind_Direction
261 262 263 264 264 264 264 264 264 266 268 270 272 273 274 276 278 279 280 281 282 283 282 281 281 281 282 283 284 284 286 286 287 287 288 289 291 292 292 293 294 294 292
261 262 263 264 264 264 264 264 264 266 266 268 269 271 273 275 277 278 279 280 281 281 280 279 279 280 280 281 281 282 283 284 284 285 287 288 289 290 290 291 292 292 291
262 263 264 264 265 265 265 264 264 265 266 267 268 270 272 274 275 277 278 279 278 277 277 277 278 279 281 281 281 280 280 281 282 283 285 287 288 288 289 289 289 290 290
262 263 264 265 266 266 266 265 264 265 266 266 267 269 271 273 274 275 276 276 276 276 277 277 277 278 279 280 280 279 279 279 280 282 283 285 287 288 289 288 288 288 288
262 263 264 265 266 266 267 266 265 265 266 266 267 268 269 271 274 274 274 275 274 275 275 276 276 277 278 279 280 280 278 277 279 281 283 285 286 288 289 289 288 287 287
262 262 263 264 265 266 266 266 266 266 266 266 267 267 269 270 272 273 272 273 274 275 275 275 276 277 278 279 280 279 277 276 278 280 282 284 286 287 287 288 288 287 286
262 263 263 264 265 266 267 266 266 266 267 267 266 267 268 269 270 270 271 272 273 274 275 276 276 277 278 278 279 279 277 276 277 279 281 283 284 285 285 286 286 287 287
263 264 265 265 265 265 267 267 266 266 267 267 267 266 267 267 267 268 269 270 272 273 274 276 276 276 277 278 278 277 277 275 277 279 281 282 282 283 284 285 285 286 286
263 264 265 265 266 267 267 268 267 267 266 267 268 268 267 266 265 266 266 268 270 272 273 275 276 276 277 277 277 277 277 275 277 278 280 281 281 282 282 282 283 284 285
263 264 266 267 267 267 268 267 266 266 266 266 267 267 268 268 266 265 266 267 269 272 273 274 276 276 277 276 277 278 276 275 277 278 278 279 279 280 280 281 282 284 284
262 264 265 267 267 267 267 268 268 267 266 266 266 266 266 267 267 266 266 267 268 271 273 274 275 275 277 276 276 277 276 275 276 276 277 278 278 279 280 281 281 283 284
263 264 266 267 266 267 267 268 268 268 268 266 266 267 267 267 267 267 267 267 268 270 272 273 275 275 276 275 276 276 274 273 274 275 276 277 278 279 280 280 281 283 284
265 266 267 266 267 268 268 267 267 268 268 268 267 268 268 267 267 267 268 268 269 270 271 272 274 275 274 274 276 275 273 272 273 275 275 276 277 279 280 280 281 281 283
266 267 267 267 268 268 268 268 268 268 267 269 269 269 269 268 268 269 269 269 269 270 271 271 272 273 273 273 274 274 273 273 273 275 275 275 276 277 279 279 279 280 282
266 266 267 267 268 268 268 268 268 268 269 270 270 271 271 270 270 271 270 271 271 271 270 271 271 272 273 274 272 272 272 273 274 275 274 275 276 276 278 278 278 279 280
266 267 267 268 268 268 268 268 268 269 269 270 271 271 273 272 271 272 272 272 273 272 271 270 270 271 270 271 271 271 272 273 273 274 276 276 276 276 277 277 278 278 280
266 267 267 268 269 270 269 269 268 268 269 271 272 272 274 274 272 272 272 272 272 272 271 269 269 270 269 270 270 271 273 273 273 275 277 277 276 276 276 277 278 279 280
268 268 268 269 270 270 271 270 270 269 270 271 272 273 273 273 273 272 273 272 272 272 271 270 269 269 268 269 270 271 272 273 273 275 277 278 277 278 278 279 279 280 280
267 268 268 269 269 270 271 271 271 270 270 271 272 273 272 273 273 273 273 272 271 271 271 271 270 268 267 268 269 271 272 273 273 275 276 277 277 279 280 280 280 280 280
267 267 268 269 270 270 271 270 270 270 269 270 272 272 272 273 272 273 273 272 271 271 271 273 272 270 268 269 270 270 271 272 273 274 274 276 277 279 280 280 280 280 280
267 267 268 269 270 270 270 270 270 269 269 271 272 272 273 273 271 273 273 272 272 271 272 273 273 271 270 270 270 270 271 272 274 275 275 276 277 279 280 280 280 281 281
267 267 268 269 270 270 270 270 269 269 270 270 271 271 272 272 272 272 272 271 272 272 271 272 273 273 272 272 272 271 272 273 274 275 275 276 277 279 281 281 281 281 281
268 268 268 268 269 270 270 270 270 270 269 270 270 271 272 273 273 272 272 272 272 272 272 273 274 273 273 273 272 272 274 274 275 275 275 276 277 279 281 282 283 282 282
270 269 269 269 269 269 270 270 270 270 270 271 271 272 272 271 272 272 271 272 273 272 272 273 273 273 274 274 274 273 273 274 274 276 276 277 277 278 281 282 283 283 283
271 270 269 269 269 269 269 270 270 269 270 271 271 271 271 271 271 271 272 273 273 273 272 271 272 273 273 274 275 275 275 275 274 276 277 278 278 278 280 282 283 284 285
272 271 271 270 270 270 268 269 269 270 270 271 271 272 272 271 271 272 272 273 274 274 271 271 273 273 273 275 277 277 276 276 275 276 278 279 278 279 280 282 284 284 284
Height
5801 5801 5802 5803 5804 5805 5806 5807 5807 5808 5809 5809 5809 5809 5809 5809 5809 5809 5808 5807 5806 5806 5805 5804 5803 5803 5802 5802 5802 5801 5801 5801 5800 5799 5798 5797 5796 5795 5793 5792 5790 5789 5787
5793 5794 5795 5796 5797 5797 5798 5799 5800 5800 5801 5801 5802 5802 5802 5802 5802 5801 5801 5800 5799 5798 5797 5797 5796 5796 5795 5795 5794 5794 5794 5794 5793 5792 5791 5790 5789 5788 5787 5785 5784 5782 5780
5785 5786 5787 5787 5788 5789 5790 5791 5791 5792 5793 5793 5794 5794 5794 5794 5794 5793 5793 5792 5792 5791 5790 5790 5789 5789 5788 5787 5787 5786 5786 5786 5786 5785 5784 5783 5782 5781 5779 5778 5776 5775 5773
5776 5777 5778 5779 5779 5780 5781 5782 5782 5783 5784 5784 5785 5785 5785 5785 5785 5785 5784 5784 5784 5783 5783 5783 5782 5781 5781 5780 5779 5779 5778 5778 5778 5777 5776 5776 5775 5773 5772 5770 5768 5767 5765
5766 5767 5769 5769 5770 5771 5772 5772 5773 5774 5774 5775 5775 5776 5776 5776 5776 5776 5775 5775 5775 5775 5775 5774 5774 5773 5773 5772 5771 5770 5770 5770 5769 5769 5768 5767 5766 5765 5763 5761 5760 5758 5756
5756 5757 5758 5759 5760 5761 5762 5762 5763 5764 5764 5765 5765 5766 5766 5766 5766 5766 5766 5766 5766 5766 5766 5766 5765 5765 5764 5764 5763 5762 5761 5761 5760 5760 5759 5758 5757 5756 5754 5752 5751 5749 5747
5746 5747 5748 5749 5749 5750 5751 5752 5752 5753 5753 5754 5754 5755 5756 5756 5756 5756 5756 5756 5757 5757 5757 5757 5756 5756 5755 5754 5753 5752 5752 5751 5751 5750 5749 5748 5747 5746 5744 5742 5741 5739 5737
5735 5736 5737 5738 5738 5739 5739 5740 5741 5742 5742 5743 5743 5744 5745 5746 5745 5746 5746 5747 5747 5747 5747 5747 5746 5745 5745 5744 5743 5742 5741 5741 5740 5740 5739 5738 5737 5735 5734 5732 5731 5729 5727
5724 5725 5726 5726 5727 5727 5728 5729 5729 5730 5731 5731 5731 5731 5732 5734 5735 5736 5736 5736 5736 5737 5736 5736 5735 5734 5733 5733 5732 5731 5730 5729 5729 5728 5727 5727 5726 5724 5723 5722 5720 5719 5717
5713 5714 5714 5715 5715 5716 5716 5716 5717 5717 5718 5719 5719 5719 5719 5720 5721 5724 5725 5726 5726 5726 5725 5725 5724 5723 5722 5721 5720 5719 5718 5717 5717 5716 5716 5715 5714 5713 5712 5710 5709 5708 5706
5701 5702 5703 5703 5704 5704 5704 5704 5704 5704 5705 5706 5707 5706 5706 5707 5707 5709 5712 5714 5714 5714 5713 5713 5712 5711 5710 5709 5708 5707 5706 5705 5705 5704 5704 5703 5703 5701 5700 5699 5697 5696 5695
5690 5690 5691 5691 5691 5691 5692 5691 5691 5692 5692 5693 5693 5693 5694 5694 5695 5696 5698 5699 5701 5701 5701 5700 5699 5698 5697 5696 5695 5695 5694 5693 5693 5693 5692 5692 5691 5689 5688 5686 5685 5684 5682
5679 5679 5679 5679 5679 5679 5679 5678 5678 5679 5679 5679 5680 5681 5681 5681 5682 5683 5684 5685 5687 5688 5688 5688 5686 5685 5684 5683 5683 5682 5682 5681 5681 5680 5680 5679 5678 5677 5675 5674 5673 5671 5670
5667 5667 5667 5667 5667 5666 5666 5665 5665 5666 5666 5667 5667 5667 5668 5668 5668 5669 5670 5670 5672 5674 5675 5675 5673 5671 5671 5671 5670 5670 5669 5668 5668 5667 5666 5666 5665 5664 5663 5661 5660 5659 5657
5655 5655 5655 5655 5654 5653 5653 5653 5653 5653 5654 5654 5654 5654 5654 5655 5655 5655 5656 5656 5657 5658 5661 5661 5660 5659 5658 5658 5657 5656 5656 5655 5655 5654 5653 5652 5651 5650 5649 5648 5647 5646 5644
5642 5642 5642 5642 5642 5641 5640 5640 5641 5640 5640 5641 5641 5642 5642 5642 5642 5642 5642 5642 5641 5642 5645 5647 5646 5645 5644 5644 5644 5643 5643 5642 5641 5641 5640 5639 5638 5637 5635 5634 5633 5632 5631
5629 5629 5629 5629 5629 5628 5628 5627 5628 5628 5628 5629 5629 5629 5629 5629 5629 5629 5628 5628 5628 5628 5629 5632 5631 5631 5630 5630 5630 5630 5629 5628 5628 5627 5626 5625 5624 5623 5622 5621 5620 5618 5617
5616 5616 5616 5616 5616 5616 5615 5615 5615 5616 5617 5617 5617 5617 5616 5616 5616 5616 5615 5615 5614 5614 5615 5617 5617 5617 5617 5617 5617 5616 5616 5615 5615 5614 5613 5612 5611 5610 5609 5608 5606 5605 5604
5603 5603 5603 5603 5603 5603 5603 5603 5603 5604 5604 5604 5604 5604 5603 5603 5603 5602 5602 5601 5601 5601 5601 5602 5603 5603 5603 5603 5603 5603 5603 5603 5602 5601 5600 5599 5598 5596 5596 5594 5592 5591 5590
5589 5590 5590 5590 5590 5590 5590 5590 5590 5591 5591 5591 5591 5591 5591 5591 5590 5590 5589 5589 5588 5588 5589 5589 5590 5590 5590 5590 5590 5590 5591 5590 5589 5588 5587 5586 5585 5583 5582 5580 5579 5578 5576
5576 5576 5577 5577 5577 5577 5577 5578 5578 5578 5578 5578 5578 5578 5578 5578 5577 5577 5576 5576 5576 5576 5577 5577 5577 5578 5578 5578 5578 5577 5577 5577 5577 5575 5575 5574 5573 5571 5569 5567 5566 5564 5563
5562 5563 5564 5564 5565 5565 5565 5565 5565 5565 5566 5566 5566 5566 5566 5566 5565 5564 5564 5564 5564 5564 5565 5565 5565 5565 5565 5565 5564 5564 5564 5564 5565 5565 5562 5561 5560 5559 5557 5555 5553 5551 5549
5550 5550 5551 5552 5552 5553 5553 5553 5552 5553 5553 5553 5554 5554 5554 5554 5553 5553 5552 5552 5552 5552 5553 5553 5553 5553 5553 5553 5552 5552 5551 5551 5551 5551 5549 5549 5548 5546 5544 5542 5540 5538 5536
5536 5537 5538 5539 5540 5541 5541 5541 5540 5540 5540 5541 5541 5542 5542 5542 5541 5541 5541 5541 5541 5541 5541 5541 5541 5541 5541 5540 5539 5539 5539 5539 5539 5538 5537 5536 5535 5534 5531 5529 5527 5524 5523
5524 5525 5525 5526 5527 5528 5528 5528 5527 5527 5528 5529 5529 5529 5529 5530 5530 5529 5529 5530 5530 5530 5529 5529 5530 5529 5529 5528 5527 5527 5527 5527 5527 5527 5526 5525 5523 5522 5520 5517 5515 5512 5510
5512 5512 5513 5513 5514 5514 5515 5515 5515 5515 5516 5517 5517 5518 5518 5518 5518 5518 5518 5519 5519 5520 5519 5519 5519 5519 5518 5517 5517 5516 5516 5515 5515 5516 5515 5513 5511 5509 5509 5507 5504 5501 5498